Location: WHS+Essen
(51.3947°N, 6.9794°E)
Time: 20:14:45
(UTC+02:00)

ISS - Pass Details

Date: 27 May 2019
Orbit: 408 x 418 km, 51.6° (Epoch: 17 June)

Event Time Altitude Azimuth Distance (km) Brightness Sun altitude
Rises 23:19:53 0° 282° (WNW) 2,358 0.7 -11.9°
Reaches altitude 10° 23:21:59 10° 280° (W) 1,496 -0.4 -12.1°
Maximum altitude 23:25:19 67° 197° (SSW) 458 -3.8 -12.3°
Enters shadow 23:27:40 18° 118° (ESE) 1,109 -2.1 -12.5°
